Weather History for Deadhorse, AK

Change the Weather History Date:

Saturday, January 26, 2013

  Actual Average Record
Temperature  
Mean Temperature -24 °F -  
Max Temperature -18 °F -8 °F 29 °F (1991)
Min Temperature -29 °F -22 °F -59 °F (1989)
Degree Days  
Heating Degree Days 88    
Moisture  
Dew Point -31 °F    
Average Humidity 69    
Maximum Humidity 74    
Minimum Humidity 63    
Precipitation  
Precipitation 0.00 in - - ()
Sea Level Pressure  
Sea Level Pressure 30.36 in    
Wind  
Wind Speed 9 mph (West)    
Max Wind Speed 21 mph    
Max Gust Speed 24 mph    
Visibility 6 miles    
Events Snow    
Averages and records for this station are not official NWS values.
T = Trace of Precipitation, MM = Missing Value Source: NWS Daily Summary

Daily Weather History Graph

Daily Weather History Graph

Search for Another Location

Airport:

Trip Planner

Search our weather history database for the weather conditions in past years. The results will help you decide how hot, cold, wet, or windy it might be!

Date:

Astronomy

Jan. 26, 2013 Rise Set
Actual Time 11:15 AM AKST 2:58 PM AKST
Civil Twilight 9:35 AM AKST 4:38 PM AKST
Nautical Twilight 8:12 AM AKST 6:01 PM AKST
Astronomical Twilight 6:59 AM AKST 7:14 PM AKST
Moon 3:56 PM AKST (1/26) 9:54 AM AKST (1/26)
Length of Visible Light 7h 03m
Length of Day
3h 43m
Full, 100% of the Moon is Illuminated
Jan 26
Full
Jan 26
Full
Feb 3
Last Quarter
Feb 9
New
Feb 17
First Quarter

Hourly Weather History & Observations

Time (AKST) Temp. Windchill Dew Point Humidity Pressure Visibility Wind Dir Wind Speed Gust Speed Precip Events Conditions
12:53 AM -18.0 °F -34.7 °F -25.1 °F 70% 30.21 in 10.0 mi North 6.9 mph - N/A   Mostly Cloudy
1:53 AM -18.9 °F -38.6 °F -26.0 °F 70% 30.24 in 9.0 mi North 9.2 mph - N/A   Scattered Clouds
2:53 AM -20.0 °F -39.9 °F -26.0 °F 74% 30.26 in 7.0 mi North 9.2 mph - N/A   Overcast
3:53 AM -20.9 °F -38.1 °F -27.9 °F 70% 30.27 in 9.0 mi North 6.9 mph - N/A   Mostly Cloudy
4:53 AM -20.9 °F -36.4 °F -27.9 °F 70% 30.29 in 5.0 mi North 5.8 mph - N/A   Mostly Cloudy
5:27 AM -22.0 °F -33.0 °F -29.2 °F 69% 30.30 in 1.8 mi NNW 3.5 mph - N/A   Overcast
5:53 AM -20.9 °F -31.7 °F -27.9 °F 70% 30.32 in 2.0 mi NNW 3.5 mph - N/A Snow Light Snow
6:02 AM -20.2 °F -30.9 °F -27.4 °F 69% 30.32 in 3.0 mi North 3.5 mph - N/A Snow Light Snow
6:53 AM -22.0 °F -33.0 °F -29.0 °F 70% 30.34 in 3.0 mi North 3.5 mph - N/A Snow Light Snow
7:53 AM -20.9 °F - -27.9 °F 70% 30.36 in 4.0 mi Calm Calm - N/A Snow Light Snow
8:53 AM -23.1 °F -36.8 °F -29.9 °F 70% 30.37 in 4.0 mi WNW 4.6 mph - N/A   Overcast
9:53 AM -26.0 °F -40.2 °F -33.0 °F 69% 30.38 in 9.0 mi West 4.6 mph - N/A   Overcast
10:10 AM -25.6 °F -41.9 °F -32.8 °F 69% 30.37 in 10.0 mi West 5.8 mph - N/A   Overcast
10:53 AM -26.0 °F -42.4 °F -33.0 °F 69% 30.38 in 9.0 mi West 5.8 mph - N/A   Overcast
11:53 AM -26.0 °F -44.2 °F -33.0 °F 69% 30.39 in 9.0 mi WSW 6.9 mph - N/A   Overcast
12:53 PM -27.9 °F -49.6 °F -35.0 °F 69% 30.39 in 8.0 mi WSW 9.2 mph - N/A   Mostly Cloudy
1:08 PM -29.2 °F -51.2 °F -36.4 °F 68% 30.38 in 10.0 mi SW 9.2 mph - N/A   Scattered Clouds
1:53 PM -27.9 °F -52.1 °F -35.0 °F 69% 30.39 in 10.0 mi WSW 11.5 mph - N/A   Mostly Cloudy
2:53 PM -27.0 °F -53.1 °F -34.1 °F 69% 30.39 in 6.0 mi WSW 13.8 mph - N/A   Overcast
3:03 PM -25.6 °F -51.2 °F -34.6 °F 63% 30.38 in 6.0 mi WSW 13.8 mph - N/A   Overcast
3:17 PM -25.6 °F -51.2 °F -32.8 °F 69% 30.38 in 6.0 mi WSW 13.8 mph - N/A   Overcast
3:53 PM -26.0 °F -51.7 °F -33.0 °F 69% 30.39 in 6.0 mi WSW 13.8 mph - N/A   Overcast
4:53 PM -25.1 °F -50.5 °F -32.1 °F 70% 30.39 in 4.0 mi WSW 13.8 mph - N/A Snow Light Snow
5:53 PM -24.0 °F -53.9 °F -31.0 °F 70% 30.38 in 2.0 mi WSW 20.7 mph - N/A Snow Light Snow
6:53 PM -24.0 °F -53.2 °F -31.0 °F 70% 30.39 in 2.0 mi WSW 19.6 mph 24.2 mph N/A Snow Light Snow
7:53 PM -23.1 °F -51.3 °F -29.9 °F 70% 30.40 in 1.5 mi WSW 18.4 mph - N/A Snow Light Snow
8:53 PM -23.1 °F -52.7 °F -29.9 °F 70% 30.40 in 1.5 mi WSW 20.7 mph - N/A Snow Light Snow
9:53 PM -22.0 °F -49.9 °F -29.0 °F 70% 30.41 in 2.0 mi WSW 18.4 mph - N/A Snow Light Snow
10:53 PM -22.0 °F -47.5 °F -29.0 °F 70% 30.41 in 3.0 mi WSW 15.0 mph - N/A Snow Blowing Snow
11:53 PM -20.9 °F -46.2 °F -27.9 °F 70% 30.43 in 6.0 mi WSW 15.0 mph - N/A Snow Light Snow